Weather History for KANQ - April, 2014

Change the Weather History Date:

Wednesday, April 30, 2014

  Actual Average (KFWA) Record (KFWA)
Temperature  
Mean Temperature 54 °F 55 °F  
Max Temperature 62 °F 67 °F 89 °F (1899)
Min Temperature 46 °F 44 °F 29 °F (2008)
Degree Days  
Heating Degree Days 11 10  
Month to date heating degree days 459  
Since 1 July heating degree days 5882  
Cooling Degree Days 0 0  
Month to date cooling degree days 8  
Year to date cooling degree days 8  
Growing Degree Days 4 (Base 50)    
Moisture  
Dew Point 47 °F    
Average Humidity 78    
Maximum Humidity 100    
Minimum Humidity 55    
Precipitation  
Precipitation 0.00 in 0.11 in 1.66 in (1909)
Month to date precipitation 3.52  
Year to date precipitation 10.53  
Snow  
Snow 0.00 in 0.00 in T in (1996)
Month to date snowfall 1.0  
Since 1 July snowfall 33.5  
Snow Depth -    
Sea Level Pressure  
Sea Level Pressure 29.76 in    
Wind  
Wind Speed 9 mph (SSW)    
Max Wind Speed 16 mph    
Max Gust Speed -    
Visibility 10 miles    
Events      
T = Trace of Precipitation, MM = Missing Value Source: NWS Daily Summary

Daily Weather History Graph

Daily Weather History Graph

Search for Another Location

Airport or City:

Trip Planner

Search our weather history database for the weather conditions in past years. The results will help you decide how hot, cold, wet, or windy it might be!

Date:

Astronomy

Apr. 30, 2014 Rise Set
Actual Time 6:38 AM EDT 8:37 PM EDT
Civil Twilight 6:08 AM EDT 9:07 PM EDT
Nautical Twilight 5:31 AM EDT 9:44 PM EDT
Astronomical Twilight 4:51 AM EDT 10:24 PM EDT
Moon 7:38 AM EDT 10:16 PM EDT
Length of Visible Light 14h 59m
Length of Day
13h 58m
New Moon, 2% of the Moon is Illuminated
Apr 30
New Moon
May 6
First Quarter
May 14
Full
May 21
Last Quarter
May 28
New

Hourly Weather History & Observations

Time (EDT) Temp. Windchill Dew Point Humidity Pressure Visibility Wind Dir Wind Speed Gust Speed Precip Events Conditions
12:15 AM 53.6 °F - 46.4 °F 77% 29.73 in 10.0 mi SSE 12.7 mph - N/A   Clear
12:35 AM 53.6 °F - 46.4 °F 77% 29.74 in 10.0 mi South 11.5 mph - N/A   Clear
12:55 AM 53.6 °F - 46.4 °F 77% 29.75 in 10.0 mi South 11.5 mph - N/A   Clear
1:15 AM 53.6 °F - 46.4 °F 77% 29.75 in 10.0 mi South 11.5 mph - N/A   Clear
1:35 AM 53.6 °F - 46.4 °F 77% 29.75 in 10.0 mi South 10.4 mph - N/A   Clear
1:55 AM 51.8 °F - 46.4 °F 82% 29.74 in 10.0 mi South 5.8 mph - N/A   Clear
2:15 AM 51.8 °F - 46.4 °F 82% 29.74 in 10.0 mi South 6.9 mph - N/A   Clear
2:35 AM 51.8 °F - 46.4 °F 82% 29.73 in 10.0 mi South 5.8 mph - N/A   Clear
2:55 AM 50.0 °F - 46.4 °F 87% 29.74 in 10.0 mi SSE 5.8 mph - N/A   Clear
3:15 AM 48.2 °F - 46.4 °F 93% 29.74 in 10.0 mi SSE 4.6 mph - N/A   Clear
3:35 AM 48.2 °F - 46.4 °F 93% 29.74 in 10.0 mi SSE 5.8 mph - N/A   Clear
3:55 AM 50.0 °F - 46.4 °F 87% 29.75 in 10.0 mi SSE 6.9 mph - N/A   Partly Cloudy
4:15 AM 50.0 °F - 46.4 °F 87% 29.75 in 10.0 mi South 5.8 mph - N/A   Mostly Cloudy
4:35 AM 48.2 °F - 46.4 °F 93% 29.75 in 10.0 mi South 4.6 mph - N/A   Partly Cloudy
4:55 AM 48.2 °F - 46.4 °F 93% 29.75 in 10.0 mi SSE 4.6 mph - N/A   Clear
5:15 AM 48.2 °F - 46.4 °F 93% 29.74 in 10.0 mi SSE 3.5 mph - N/A   Clear
5:35 AM 48.2 °F - 46.4 °F 93% 29.75 in 10.0 mi SSE 4.6 mph - N/A   Clear
5:55 AM 48.2 °F - 46.4 °F 93% 29.76 in 10.0 mi SSE 6.9 mph - N/A   Clear
6:15 AM 48.2 °F - 46.4 °F 93% 29.75 in 10.0 mi SSE 5.8 mph - N/A   Partly Cloudy
6:35 AM 48.2 °F - 46.4 °F 93% 29.76 in 10.0 mi SSE 5.8 mph - N/A   Mostly Cloudy
6:55 AM 48.2 °F - 46.4 °F 93% 29.77 in 10.0 mi South 4.6 mph - N/A   Overcast
7:15 AM 48.2 °F - 48.2 °F 100% 29.77 in 10.0 mi SSE 8.1 mph - N/A   Overcast
7:35 AM 50.0 °F - 48.2 °F 94% 29.77 in 10.0 mi South 6.9 mph - N/A   Overcast
7:55 AM 50.0 °F - 48.2 °F 94% 29.78 in 10.0 mi South 6.9 mph - N/A   Overcast
8:15 AM 50.0 °F - 48.2 °F 94% 29.78 in 10.0 mi SSE 9.2 mph - N/A   Overcast
8:35 AM 51.8 °F - 48.2 °F 88% 29.77 in 10.0 mi SSE 6.9 mph - N/A   Overcast
8:55 AM 51.8 °F - 48.2 °F 88% 29.77 in 10.0 mi SSE 8.1 mph - N/A   Overcast
9:15 AM 51.8 °F - 48.2 °F 88% 29.77 in 10.0 mi South 8.1 mph - N/A   Overcast
9:35 AM 51.8 °F - 50.0 °F 94% 29.76 in 10.0 mi South 8.1 mph - N/A   Overcast
9:55 AM 53.6 °F - 50.0 °F 88% 29.76 in 10.0 mi South 6.9 mph - N/A   Overcast
10:15 AM 53.6 °F - 50.0 °F 88% 29.77 in 10.0 mi South 8.1 mph - N/A   Overcast
10:35 AM 53.6 °F - 50.0 °F 88% 29.77 in 10.0 mi South 10.4 mph - N/A   Overcast
10:55 AM 53.6 °F - 50.0 °F 88% 29.77 in 10.0 mi SSW 8.1 mph - N/A   Overcast
11:15 AM 55.4 °F - 50.0 °F 82% 29.76 in 10.0 mi South 6.9 mph - N/A   Overcast
11:35 AM 55.4 °F - 50.0 °F 82% 29.77 in 10.0 mi South 10.4 mph - N/A   Overcast
11:55 AM 55.4 °F - 50.0 °F 82% 29.77 in 10.0 mi SSW 9.2 mph - N/A   Overcast
12:15 PM 57.2 °F - 51.8 °F 82% 29.76 in 10.0 mi SW 11.5 mph - N/A   Overcast
12:35 PM 60.8 °F - 51.8 °F 72% 29.76 in 10.0 mi SW 11.5 mph - N/A   Overcast
12:55 PM 60.8 °F - 51.8 °F 72% 29.75 in 10.0 mi WSW 6.9 mph - N/A   Overcast
1:15 PM 62.6 °F - 51.8 °F 68% 29.74 in 10.0 mi SSW 9.2 mph - N/A   Mostly Cloudy
1:35 PM 62.6 °F - 50.0 °F 63% 29.74 in 10.0 mi WSW 10.4 mph - N/A   Mostly Cloudy
1:55 PM 60.8 °F - 50.0 °F 68% 29.74 in 10.0 mi SW 9.2 mph - N/A   Overcast
2:15 PM 60.8 °F - 48.2 °F 63% 29.74 in 10.0 mi SSW 12.7 mph - N/A   Overcast
2:35 PM 59.0 °F - 48.2 °F 67% 29.75 in 10.0 mi SSW 9.2 mph - N/A   Overcast
2:55 PM 60.8 °F - 48.2 °F 63% 29.74 in 10.0 mi WSW 9.2 mph - N/A   Overcast
3:15 PM 62.6 °F - 48.2 °F 59% 29.73 in 10.0 mi SW 10.4 mph - N/A   Overcast
3:35 PM 62.6 °F - 48.2 °F 59% 29.73 in 10.0 mi WSW 11.5 mph - N/A   Overcast
3:55 PM 62.6 °F - 48.2 °F 59% 29.73 in 10.0 mi SW 10.4 mph - N/A   Overcast
4:15 PM 62.6 °F - 48.2 °F 59% 29.74 in 10.0 mi SW 9.2 mph - N/A   Overcast
4:35 PM 62.6 °F - 46.4 °F 55% 29.73 in 10.0 mi WSW 11.5 mph - N/A   Overcast
4:55 PM 60.8 °F - 46.4 °F 59% 29.74 in 10.0 mi West 9.2 mph - N/A   Overcast
5:15 PM 60.8 °F - 46.4 °F 59% 29.74 in 10.0 mi WSW 9.2 mph - N/A   Overcast
5:35 PM 60.8 °F - 46.4 °F 59% 29.74 in 10.0 mi West 8.1 mph - N/A   Overcast
5:55 PM 60.8 °F - 46.4 °F 59% 29.75 in 10.0 mi West 6.9 mph - N/A   Overcast
6:15 PM 59.0 °F - 46.4 °F 63% 29.75 in 10.0 mi West 9.2 mph - N/A   Overcast
6:35 PM 57.2 °F - 46.4 °F 67% 29.75 in 10.0 mi West 6.9 mph - N/A   Overcast
6:55 PM 57.2 °F - 46.4 °F 67% 29.76 in 10.0 mi West 9.2 mph - N/A   Overcast
7:15 PM 57.2 °F - 44.6 °F 63% 29.76 in 10.0 mi West 11.5 mph - N/A   Overcast
7:35 PM 55.4 °F - 46.4 °F 72% 29.76 in 10.0 mi West 12.7 mph - N/A   Overcast
7:55 PM 55.4 °F - 46.4 °F 72% 29.77 in 10.0 mi West 11.5 mph - N/A   Overcast
8:15 PM 53.6 °F - 44.6 °F 72% 29.78 in 10.0 mi WSW 13.8 mph - N/A   Overcast
8:35 PM 53.6 °F - 46.4 °F 77% 29.79 in 10.0 mi West 11.5 mph - N/A   Overcast
8:55 PM 53.6 °F - 46.4 °F 77% 29.79 in 10.0 mi West 12.7 mph - N/A   Overcast
9:15 PM 51.8 °F - 44.6 °F 76% 29.80 in 10.0 mi West 12.7 mph - N/A   Overcast
9:35 PM 51.8 °F - 44.6 °F 76% 29.81 in 10.0 mi WSW 10.4 mph - N/A   Overcast
9:55 PM 50.0 °F - 44.6 °F 82% 29.81 in 10.0 mi West 12.7 mph - N/A   Overcast
10:15 PM 50.0 °F - 42.8 °F 76% 29.81 in 10.0 mi West 9.2 mph - N/A   Overcast
10:35 PM 48.2 °F - 42.8 °F 82% 29.82 in 10.0 mi WSW 10.4 mph - N/A   Overcast
10:55 PM 48.2 °F - 42.8 °F 82% 29.83 in 10.0 mi WSW 11.5 mph - N/A   Overcast
11:15 PM 48.2 °F - 39.2 °F 71% 29.83 in 10.0 mi WSW 16.1 mph - N/A   Overcast
11:35 PM 46.4 °F 41.9 °F 39.2 °F 76% 29.83 in 10.0 mi WSW 9.2 mph - N/A   Overcast
11:55 PM 46.4 °F 42.4 °F 39.2 °F 76% 29.83 in 10.0 mi WSW 8.1 mph - N/A   Mostly Cloudy